CDT,Max TemperatureF,Mean TemperatureF,Min TemperatureF,Max Dew PointF,MeanDew PointF,Min DewpointF,Max Humidity, Mean Humidity, Min Humidity, Max Sea Level PressureIn, Mean Sea Level PressureIn, Min Sea Level PressureIn, Max VisibilityMiles, Mean VisibilityMiles, Min VisibilityMiles, Max Wind SpeedMPH, Mean Wind SpeedMPH, Max Gust SpeedMPH,PrecipitationIn, CloudCover, Events, WindDirDegrees
2013-4-1,26,20,15,16,15,12,93,72,59,30.25,30.21,30.19,10,10,10,6,3,,0.00,0,,27
2013-4-2,30,19,8,23,16,7,100,84,59,30.25,30.18,30.04,10,10,10,18,5,22,0.00,1,,132
2013-4-3,39,32,24,32,28,23,93,86,75,30.14,29.95,29.81,10,10,10,24,14,31,0.00,3,,253
2013-4-4,32,28,23,25,22,19,100,85,60,30.25,30.19,30.12,10,10,10,17,11,18,0.00,3,,24
2013-4-5,33,28,24,32,27,23,100,93,75,30.12,29.84,29.65,10,10,10,23,15,30,0.00,5,,132
2013-4-6,32,28,24,32,30,25,100,100,100,29.84,29.75,29.63,10,9,0,21,9,26,0.00,5,Fog,352
2013-4-7,41,36,30,39,33,30,100,99,93,29.84,29.72,29.63,10,8,0,18,8,21,0.37,7,Rain-Snow,143
2013-4-8,32,21,10,32,16,9,100,91,79,30.34,30.07,29.74,10,8,0,25,15,39,0.19,5,Fog-Rain-Snow,22
2013-4-9,28,17,6,23,13,5,100,87,69,30.44,30.39,30.34,10,10,10,17,10,21,0.00,0,Snow,339
2013-4-10,32,23,14,23,17,10,100,81,55,30.37,30.21,30.00,10,10,10,13,6,18,0.00,0,,42
2013-4-11,35,27,19,27,22,18,100,79,60,30.00,29.91,29.88,10,10,7,15,8,,0.00,6,,109
2013-4-12,32,28,24,28,26,25,100,92,75,29.95,29.93,29.90,10,10,4,9,5,,0.27,7,Snow,95
2013-4-13,32,28,24,32,28,25,100,97,87,29.90,29.77,29.69,10,10,3,24,10,32,0.00,8,,117
2013-4-14,26,24,21,27,23,19,100,94,80,29.83,29.76,29.73,10,5,0,22,18,31,5.57,5,Snow,58
2013-4-15,30,27,24,27,26,23,100,95,86,30.06,29.87,29.78,10,8,2,20,15,25,1.57,6,Rain-Snow-Thunderstorm,359
2013-4-16,28,24,19,25,22,19,100,90,69,30.35,30.22,30.06,10,10,3,12,7,16,0.25,7,Snow,42
2013-4-17,28,22,17,25,21,14,100,91,69,30.35,30.28,30.23,10,10,5,14,5,18,0.06,5,Rain-Snow,334
2013-4-18,32,22,12,25,17,10,100,81,55,30.22,30.12,30.00,10,10,10,15,9,20,0.00,1,,321
2013-4-19,35,27,19,25,18,12,93,68,41,30.05,30.02,29.97,10,10,10,12,3,,0.00,2,,92
2013-4-20,32,28,23,32,23,16,100,84,59,30.02,29.95,29.87,10,10,3,31,14,38,0.00,6,Rain,163
2013-4-21,32,28,24,32,27,23,100,92,80,30.24,30.04,29.84,10,9,1,26,16,38,2.11,8,Rain-Snow,313
2013-4-22,28,22,15,19,16,12,100,81,55,30.40,30.34,30.25,10,10,10,16,11,21,0.00,2,,321
2013-4-23,41,28,15,30,23,14,100,79,53,30.33,30.11,29.97,10,10,10,20,9,25,0.00,1,,277
2013-4-24,30,26,23,30,22,10,100,80,47,30.05,29.98,29.90,10,10,1,29,14,38,0.41,2,Rain-Snow,299
2013-4-25,57,39,21,37,27,16,100,70,38,30.00,29.84,29.73,10,10,10,22,8,31,0.00,2,,195
2013-4-26,69,50,32,41,34,28,100,60,25,30.01,29.95,29.87,10,10,10,18,7,24,0.00,0,,253
2013-4-27,73,58,42,39,36,32,81,48,25,29.92,29.79,29.67,10,10,10,25,11,33,0.00,1,,252
2013-4-28,55,44,32,39,30,19,81,53,26,29.90,29.80,29.65,10,10,10,26,12,32,0.00,2,,324
2013-4-29,64,48,32,41,30,16,100,56,26,29.86,29.56,29.40,10,10,10,23,12,36,0.00,2,Rain,209
2013-4-30,42,33,23,39,29,21,100,83,70,30.15,29.71,29.44,10,10,9,30,15,44,0.02,5,Rain-Snow,296